[[{"header":{"parameterUnit":"m.s-1","parameterCategory":1,"la1":30.2991,"la2":30.254,"lo1":-89.0895,"lo2":-89.0444,"dy":0.0017,"dx":0.0017,"nx":28,"ny":28,"refTime":"2025-02-01T03:00:00:Z","depth":0,"parameterNumber":2,"parameterNumberName":"U-component_of_WINDS"},"data":[0,0,0,0,0,0,0,0,0,0,0,0,0,0,0,0,0,0,0,0,0,0,0,0,0,0,0,0,0,0,0,0,0,0,0,0,0,0,0,0,0,0,0,0,0,0,0,0,0,0,0,0,0,0,0,0,0,0,2.187,2.1871,0,2.1911,2.1912,2.1912,2.1886,2.1885,2.1884,2.1883,2.1925,2.1927,2.1929,0,0,0,0,0,0,0,0,0,0,0,0,0,2.1771,2.1773,2.187,2.1871,2.1871,2.1911,2.1912,2.1912,2.1886,2.1885,2.1883,2.1882,2.1924,2.1927,2.1929,0,0,0,0,0,0,0,0,0,0,0,0,0,2.1813,2.1774,2.187,2.1863,2.1863,2.1911,2.1912,2.1912,2.1887,2.1885,2.1883,2.1881,2.1923,2.1926,2.193,2.1987,0,0,2.194,2.1942,0,0,0,0,0,0,0,0,2.1811,2.1817,2.1864,2.1864,2.1864,2.1892,2.1892,2.1937,2.1887,2.1878,2.1883,2.188,2.1915,2.1919,2.1931,2.1989,2.1991,2.194,2.1942,2.1944,2.1945,0,0,0,0,0,0,0,2.1808,2.1815,2.1886,2.1864,2.1864,2.1858,2.1862,2.1901,2.1906,2.1878,2.1877,2.1882,2.1915,2.1928,2.1932,2.1991,2.194,2.1943,2.1945,2.1947,2.21,2.2102,0,0,0,0,0,0,2.1806,2.1813,2.1885,2.1888,2.1832,2.1862,2.1866,2.1884,2.1906,2.1907,2.1883,2.188,2.1923,2.1928,2.1933,2.2002,2.1944,2.1947,2.1949,2.2098,2.2101,2.2103,0,0,0,0,0,0,2.1804,2.1812,2.1883,2.185,2.1858,2.1865,2.1886,2.1886,2.1899,2.1909,2.191,2.1895,2.1921,2.1928,2.1974,2.2004,2.1949,2.1952,2.2096,2.2099,2.2102,2.2141,0,0,0,0,0,0,2.1801,2.1812,2.1833,2.185,2.186,2.1924,2.1888,2.1888,2.1905,2.1901,2.1921,2.1922,2.1921,2.1969,2.1977,2.2007,2.1954,2.2093,2.2097,2.2101,2.2137,2.2145,2.2152,0,0,0,0,0,2.1797,2.1842,2.1834,2.1843,2.1887,2.1925,2.1931,2.1928,2.1907,2.1929,2.1936,2.1922,2.1999,2.1974,2.1983,2.2014,2.2091,2.2096,2.21,2.2134,2.2144,2.2152,0,0,0,0,0,0,2.1828,2.1844,2.1836,2.1888,2.1905,2.1921,2.1948,2.1938,2.1962,2.1958,2.1953,2.1958,2.2006,2.2015,2.1987,2.2072,2.2042,2.2049,2.2064,2.2074,2.2081,2.2078,2.1957,0,0,0,0,0,2.1841,2.187,2.1883,2.1928,2.1937,2.1941,2.1958,2.1954,2.1972,2.198,2.199,2.2008,2.2037,2.2055,2.2082,2.2138,2.2143,2.2164,2.2172,2.2178,2.2184,2.2216,2.2226,2.2118,2.2118,2.2118,0,0,2.1868,2.188,2.1899,2.1934,2.1947,2.1979,2.1948,2.1981,2.2005,2.1985,2.2029,2.2037,2.2057,2.2109,2.2132,2.2118,2.2215,2.2184,2.2188,2.2191,2.2221,2.2232,2.2241,2.2121,2.212,2.212,0,0,2.1932,2.1944,2.1984,2.1998,2.2018,2.2021,2.2031,2.2048,2.2053,2.2097,2.2083,2.2111,2.216,2.2175,2.219,2.2262,2.225,2.2271,2.231,2.2341,2.2349,2.2357,2.2384,2.2393,2.2277,2.2277,2.2277,0,2.1963,2.2009,2.2005,2.204,2.2057,2.204,2.2081,2.2094,2.2123,2.2135,2.2118,2.218,2.2192,2.2248,2.2266,2.2278,2.2289,2.2269,2.2348,2.2356,2.2363,2.2388,2.2398,2.2279,2.2279,2.2279,2.2278,0,2.2046,2.2079,2.2108,2.2136,2.2156,2.2193,2.2196,2.2216,2.2211,2.2216,2.2262,2.2276,2.2306,2.2319,2.2314,2.2375,2.2365,2.2349,2.2319,2.2376,2.24,2.2409,2.2283,2.2282,2.2281,2.2281,0,0,2.2131,2.2158,2.2168,2.2182,2.2204,2.2229,2.2266,2.2296,2.2314,2.2334,2.2366,2.2409,2.2394,2.241,2.2407,2.2434,2.2492,2.2414,2.2415,2.2429,2.2561,2.2575,2.2586,2.2484,2.2486,2.2488,2.256,0,2.2198,2.2263,2.2261,2.2322,2.2352,2.2338,2.2371,2.2388,2.2394,2.2421,2.2427,2.2458,2.2435,2.2445,2.2472,2.248,2.2519,2.2474,2.2515,2.2516,2.2511,2.2598,2.2612,2.268,2.2569,2.2571,2.2572,0,2.2285,2.2309,2.2373,2.2392,2.2404,2.2434,2.2461,2.2487,2.2507,2.251,2.2529,2.2522,2.256,2.2529,2.2583,2.2553,2.257,2.2576,2.2579,2.2583,2.2548,2.2606,2.2701,2.2712,2.2587,2.2585,2.2584,0,2.2342,2.239,2.2435,2.2446,2.2469,2.249,2.2501,2.2519,2.2538,2.2562,2.2574,2.2603,2.2618,2.2641,2.2642,2.2619,2.2697,2.2666,2.2701,2.2701,2.2719,2.2718,2.2819,2.2728,2.2728,2.2728,2.2727,0,2.2417,2.2457,2.2461,2.2488,2.2533,2.2531,2.2575,2.2584,2.2601,2.263,2.2619,2.2648,2.2647,2.2676,2.2677,2.2723,2.273,2.2733,2.2733,2.2735,2.2734,2.2746,2.2742,2.273,2.273,2.2729,2.2729,0,2.2488,2.2492,2.254,2.2558,2.2564,2.2596,2.2612,2.2639,2.2644,2.2682,2.2691,2.2699,2.2733,2.2736,2.2775,2.2776,2.2831,2.2825,2.2824,2.2824,2.2859,2.2856,2.2972,2.2988,2.2886,2.2887,2.2888,0,2.2536,2.2567,2.2589,2.2608,2.262,2.265,2.2669,2.2669,2.2689,2.2715,2.2739,2.2772,2.2798,2.2853,2.2862,2.2893,2.2888,2.2927,2.2893,2.2894,2.289,2.2889,2.2892,2.2934,2.2935,2.2936,2.2936,0,2.2622,2.2622,2.265,2.2679,2.2702,2.2725,2.2746,2.2762,2.2764,2.2788,2.2822,2.2843,2.2883,2.2916,2.2946,2.2958,2.2948,2.2947,2.2957,2.2959,2.2958,2.296,2.2843,2.2944,2.2944,2.2943,2.2943,2.2942,2.2684,2.2711,2.2731,2.2762,2.2778,2.2799,2.2825,2.2834,2.2863,2.2896,2.2893,2.2932,2.2953,2.2992,2.3006,2.3036,2.3023,2.3038,2.3041,2.3045,2.3049,2.2952,2.3041,2.3041,2.3041,2.3041,2.3041,0,2.2769,2.2782,2.2811,2.2841,2.2867,2.2855,2.2878,2.29,2.2934,2.2954,2.2981,2.3021,2.3053,2.3066,2.3098,2.312,2.3117,2.3129,2.3127,2.3131,2.3058,2.3047,2.3131,2.3131,2.3131,2.3131,2.3131,2.3131,2.2817,2.2863,2.2866,2.292,2.2932,2.297,2.2984,2.3004,2.302,2.3065,2.3092,2.31,2.3118,2.3151,2.3181,2.3184,2.3197,2.3211,2.3212,2.3144,2.3135,2.3127,2.3116,2.3213,2.3213,2.3282,2.3283,2.3283]},{"header":{"parameterUnit":"m.s-1","parameterCategory":1,"la1":30.2991,"la2":30.254,"lo1":-89.0895,"lo2":-89.0444,"dy":0.0017,"dx":0.0017,"nx":28,"ny":28,"refTime":"2025-02-01T03:00:00:Z","depth":0,"parameterNumber":3,"parameterNumberName":"V-component_of_WINDS"},"data":[0,0,0,0,0,0,0,0,0,0,0,0,0,0,0,0,0,0,0,0,0,0,0,0,0,0,0,0,0,0,0,0,0,0,0,0,0,0,0,0,0,0,0,0,0,0,0,0,0,0,0,0,0,0,0,0,0,0,-1.9586,-1.9586,0,-1.964,-1.964,-1.9641,-1.9648,-1.9647,-1.9647,-1.9646,-1.9704,-1.9706,-1.9708,0,0,0,0,0,0,0,0,0,0,0,0,0,-1.9491,-1.9492,-1.9586,-1.9586,-1.9587,-1.964,-1.964,-1.9641,-1.9648,-1.9647,-1.9647,-1.9646,-1.9703,-1.9705,-1.9708,0,0,0,0,0,0,0,0,0,0,0,0,0,-1.9537,-1.9493,-1.9585,-1.9597,-1.9598,-1.9639,-1.964,-1.9641,-1.9648,-1.9647,-1.9647,-1.9646,-1.9702,-1.9705,-1.9708,-1.9742,0,0,-1.9717,-1.9719,0,0,0,0,0,0,0,0,-1.9534,-1.9541,-1.9594,-1.9596,-1.9598,-1.9636,-1.9628,-1.9675,-1.9648,-1.9629,-1.9646,-1.9645,-1.9682,-1.9687,-1.9699,-1.9745,-1.9748,-1.9718,-1.9719,-1.9721,-1.9722,0,0,0,0,0,0,0,-1.9531,-1.9538,-1.9607,-1.9595,-1.9597,-1.96,-1.9606,-1.9637,-1.9659,-1.9631,-1.9632,-1.9638,-1.9683,-1.9696,-1.97,-1.9748,-1.9718,-1.972,-1.9722,-1.9723,-1.9827,-1.9828,0,0,0,0,0,0,-1.9526,-1.9536,-1.9605,-1.9609,-1.9563,-1.9602,-1.9609,-1.9625,-1.9659,-1.9664,-1.9638,-1.9638,-1.9691,-1.9696,-1.9702,-1.9745,-1.9721,-1.9724,-1.9725,-1.9827,-1.9828,-1.9829,0,0,0,0,0,0,-1.9524,-1.9532,-1.9603,-1.9572,-1.9582,-1.9605,-1.9623,-1.9626,-1.9639,-1.9665,-1.9669,-1.9647,-1.969,-1.9698,-1.9733,-1.9747,-1.9725,-1.9728,-1.9825,-1.9827,-1.9828,-1.9831,0,0,0,0,0,0,-1.9521,-1.9531,-1.9544,-1.9573,-1.9583,-1.9632,-1.9624,-1.9628,-1.9644,-1.9644,-1.9674,-1.9678,-1.969,-1.9728,-1.9736,-1.9751,-1.973,-1.9824,-1.9826,-1.9828,-1.983,-1.9833,-1.9835,0,0,0,0,0,-1.9517,-1.9542,-1.9544,-1.9553,-1.9599,-1.9633,-1.9639,-1.9652,-1.9645,-1.9658,-1.9675,-1.9677,-1.9744,-1.9731,-1.974,-1.9757,-1.9823,-1.9826,-1.9828,-1.9829,-1.9832,-1.9835,0,0,0,0,0,0,-1.9515,-1.9546,-1.9549,-1.9584,-1.9605,-1.9634,-1.9651,-1.9655,-1.9679,-1.9678,-1.9694,-1.97,-1.9735,-1.9749,-1.9734,-1.9792,-1.9783,-1.9787,-1.9781,-1.9785,-1.9787,-1.9783,-1.9733,0,0,0,0,0,-1.9518,-1.9542,-1.9569,-1.9597,-1.9608,-1.9627,-1.9643,-1.9651,-1.9674,-1.9683,-1.9703,-1.9726,-1.9752,-1.9769,-1.9795,-1.9832,-1.984,-1.9848,-1.9851,-1.9853,-1.9856,-1.9878,-1.9882,-1.9836,-1.9836,-1.9836,0,0,-1.9526,-1.9546,-1.956,-1.9597,-1.9615,-1.964,-1.9635,-1.9662,-1.9681,-1.9688,-1.9722,-1.9737,-1.9764,-1.98,-1.9817,-1.9814,-1.987,-1.9855,-1.9857,-1.9859,-1.9881,-1.9885,-1.9889,-1.9837,-1.9837,-1.9837,0,0,-1.9552,-1.9569,-1.9595,-1.9613,-1.964,-1.9654,-1.966,-1.9688,-1.9698,-1.9733,-1.9739,-1.9762,-1.9807,-1.9826,-1.9842,-1.9877,-1.9881,-1.9886,-1.9898,-1.992,-1.9923,-1.9927,-1.994,-1.9945,-1.9889,-1.9889,-1.9889,0,-1.9558,-1.9595,-1.9608,-1.9635,-1.9651,-1.9659,-1.9686,-1.9703,-1.9737,-1.9749,-1.9744,-1.9801,-1.982,-1.9862,-1.987,-1.9883,-1.9891,-1.9882,-1.9922,-1.9925,-1.9928,-1.9941,-1.9946,-1.9889,-1.9889,-1.9889,-1.9889,0,-1.9602,-1.9628,-1.9646,-1.9678,-1.9697,-1.9723,-1.9741,-1.9759,-1.9766,-1.978,-1.9816,-1.9839,-1.9869,-1.988,-1.9887,-1.9923,-1.992,-1.9918,-1.991,-1.9933,-1.9946,-1.995,-1.989,-1.989,-1.9889,-1.9889,0,0,-1.9627,-1.9667,-1.9674,-1.9689,-1.972,-1.9741,-1.9768,-1.9798,-1.9813,-1.9837,-1.9862,-1.99,-1.9899,-1.9917,-1.9926,-1.9945,-1.9973,-1.9941,-1.9942,-1.9947,-2.0015,-2.0016,-2.0022,-1.9975,-1.9976,-1.9977,-2.0013,0,-1.9657,-1.9706,-1.9719,-1.976,-1.9785,-1.9793,-1.9818,-1.984,-1.9854,-1.9878,-1.9894,-1.9921,-1.9917,-1.9928,-1.9947,-1.9965,-1.9987,-1.9963,-1.9999,-2.0,-1.9992,-2.0028,-2.0029,-2.0062,-2.0018,-2.0019,-2.0019,0,-1.9699,-1.9723,-1.9767,-1.9796,-1.9807,-1.9828,-1.9857,-1.988,-1.9906,-1.9915,-1.9936,-1.9944,-1.9974,-1.9964,-2.0007,-1.999,-2.0006,-2.0017,-2.0019,-2.0023,-2.0011,-2.0033,-2.0073,-2.0078,-2.0027,-2.0026,-2.0026,0,-1.9713,-1.9757,-1.979,-1.9802,-1.9837,-1.9852,-1.9867,-1.9892,-1.991,-1.9936,-1.9947,-1.9977,-1.9993,-2.0016,-2.0032,-2.0023,-2.0074,-2.0065,-2.0083,-2.0083,-2.0094,-2.0093,-2.0136,-2.0103,-2.0103,-2.0103,-2.0103,0,-1.9746,-1.9773,-1.9797,-1.9816,-1.9847,-1.9863,-1.9893,-1.9909,-1.9931,-1.9955,-1.9964,-1.9986,-2.0006,-2.0032,-2.0045,-2.0079,-2.0087,-2.0096,-2.0099,-2.0095,-2.0094,-2.0106,-2.0104,-2.0105,-2.0104,-2.0104,-2.0104,0,-1.9767,-1.9784,-1.982,-1.985,-1.9858,-1.9879,-1.9905,-1.9925,-1.994,-1.9971,-1.9979,-2.0002,-2.0033,-2.0052,-2.0091,-2.01,-2.0138,-2.014,-2.0129,-2.013,-2.0148,-2.0146,-2.0201,-2.0209,-2.017,-2.017,-2.017,0,-1.9787,-1.9807,-1.9839,-1.9856,-1.9871,-1.9897,-1.9915,-1.9932,-1.995,-1.9982,-1.9999,-2.003,-2.0056,-2.0105,-2.0126,-2.0157,-2.016,-2.0177,-2.0165,-2.0161,-2.0161,-2.016,-2.0163,-2.0179,-2.0179,-2.018,-2.018,0,-1.982,-1.9827,-1.9853,-1.9881,-1.9902,-1.9926,-1.9949,-1.9962,-1.9983,-2.0004,-2.0035,-2.0055,-2.0095,-2.0127,-2.0159,-2.0176,-2.0182,-2.0184,-2.019,-2.0186,-2.0179,-2.0184,-2.0135,-2.0182,-2.0182,-2.0182,-2.0182,-2.0182,-1.9841,-1.986,-1.9886,-1.9914,-1.9934,-1.9956,-1.9976,-1.9994,-2.002,-2.0053,-2.0062,-2.0095,-2.0122,-2.0166,-2.0184,-2.0211,-2.0209,-2.0217,-2.0219,-2.0221,-2.0222,-2.0175,-2.0217,-2.0217,-2.0217,-2.0217,-2.0217,0,-1.9875,-1.9892,-1.9918,-1.995,-1.9973,-1.9976,-2.0003,-2.0022,-2.005,-2.0075,-2.01,-2.0137,-2.0168,-2.0192,-2.0224,-2.0241,-2.0245,-2.0249,-2.0248,-2.0252,-2.0222,-2.0214,-2.0246,-2.0246,-2.0246,-2.0246,-2.0246,-2.0246,-1.9895,-1.9928,-1.9939,-1.9983,-2.0,-2.0032,-2.0047,-2.0068,-2.0087,-2.0128,-2.0153,-2.0169,-2.0194,-2.0228,-2.0257,-2.0263,-2.0275,-2.0279,-2.0286,-2.0257,-2.0254,-2.0251,-2.0244,-2.0281,-2.0281,-2.0314,-2.0314,-2.0314]}]]